Tacoma, WA

9:27 PM PDT on May 28, 2017 (GMT -0700)
McChord Air Force Base

Weather History for KTCM - November, 2011

Change the Weather History Date:

Saturday, November 5, 2011

  Actual Average Record
Temperature  
Mean Temperature 38 °F -  
Max Temperature 48 °F 52 °F 86 °F (2004)
Min Temperature 28 °F 35 °F 19 °F (2003)
Degree Days  
Heating Degree Days 27    
Moisture  
Dew Point 32 °F    
Average Humidity 92    
Maximum Humidity 100    
Minimum Humidity 59    
Precipitation  
Precipitation 0.00 in - - ()
Sea Level Pressure  
Sea Level Pressure 29.84 in    
Wind  
Wind Speed 1 mph (ESE)    
Max Wind Speed 6 mph    
Max Gust Speed -    
Visibility 6 miles    
Events      
Averages and records for this station are not official NWS values.
T = Trace of Precipitation, MM = Missing Value Source: NWS Daily Summary

Daily Weather History Graph

Daily Weather History Graph

Search for Another Location

Airport or City:

Trip Planner

Search our weather history database for the weather conditions in past years. The results will help you decide how hot, cold, wet, or windy it might be!

Date:

Astronomy

Nov. 05, 2011 Rise Set
Actual Time 7:58 AM PDT 5:47 PM PDT
Civil Twilight 7:26 AM PDT 6:19 PM PDT
Nautical Twilight 6:50 AM PDT 6:56 PM PDT
Astronomical Twilight 6:14 AM PDT 7:31 PM PDT
Moon 3:22 PM PDT (11/5) 2:56 AM PDT (11/5)
Length of Visible Light 10h 53m
Length of Day
9h 49m
Waxing Gibbous, 79% of the Moon is Illuminated
Nov 5
Waxing Gibbous
Nov 10
Full
Nov 18
Last Quarter
Nov 24
New
Dec 2
First Quarter

Hourly Weather History & Observations

Time (PDT) Temp. Windchill Dew Point Humidity Pressure Visibility Wind Dir Wind Speed Gust Speed Precip Events Conditions
12:00 AM 32.0 °F - 32.0 °F 100% 29.90 in 1.2 mi Calm Calm - N/A   Partly Cloudy
12:02 AM 33.8 °F - 32.0 °F 93% 29.90 in 2.0 mi Calm Calm - N/A   Partly Cloudy
12:03 AM 33.8 °F 30.8 °F 32.0 °F 93% 29.90 in 2.5 mi ESE 3.5 mph - N/A   Partly Cloudy
12:05 AM 33.8 °F 30.8 °F 33.8 °F 100% 29.90 in 3.0 mi ESE 3.5 mph - N/A   Scattered Clouds
12:55 AM 32.4 °F - 32.2 °F 99% 29.89 in 5.0 mi Calm Calm - N/A   Overcast
1:55 AM 31.5 °F - 31.3 °F 99% 29.88 in 7.0 mi Calm Calm - N/A   Overcast
2:50 AM 32.0 °F - 32.0 °F 100% 29.86 in 2.5 mi Calm Calm - N/A   Overcast
2:55 AM 32.0 °F - 31.6 °F 99% 29.86 in 2.0 mi Calm Calm - N/A   Overcast
2:58 AM 32.0 °F - 32.0 °F 100% 29.86 in 1.8 mi Calm Calm - N/A   Overcast
3:00 AM 32.0 °F - 32.0 °F 100% 29.86 in 1.8 mi Calm Calm - N/A   Overcast
3:01 AM 32.0 °F - 32.0 °F 100% 29.86 in 1.5 mi Calm Calm - N/A   Overcast
3:07 AM 32.0 °F - 32.0 °F 100% 29.86 in 1.8 mi Calm Calm - N/A   Overcast
3:08 AM 32.0 °F - 32.0 °F 100% 29.86 in 2.0 mi Calm Calm - N/A   Overcast
3:09 AM 32.0 °F - 32.0 °F 100% 29.86 in 2.5 mi Calm Calm - N/A   Overcast
3:11 AM 32.0 °F - 32.0 °F 100% 29.86 in 3.0 mi Calm Calm - N/A   Overcast
3:24 AM 32.0 °F - 32.0 °F 100% 29.86 in 6.0 mi Calm Calm - N/A   Overcast
3:55 AM 32.5 °F 29.3 °F 32.4 °F 99% 29.85 in 8.0 mi East 3.5 mph - N/A   Overcast
4:55 AM 31.5 °F - 30.9 °F 98% 29.83 in 4.0 mi Calm Calm - N/A   Overcast
5:55 AM 32.7 °F - 32.5 °F 99% 29.82 in 9.0 mi Calm Calm - N/A   Overcast
6:55 AM 32.5 °F - 32.0 °F 98% 29.82 in 7.0 mi Calm Calm - N/A   Overcast
7:55 AM 32.7 °F - 32.5 °F 99% 29.81 in 9.0 mi Calm Calm - N/A   Mostly Cloudy
8:44 AM 32.0 °F - 32.0 °F 100% 29.82 in 2.5 mi Calm Calm - N/A   Mostly Cloudy
8:50 AM 32.0 °F - 32.0 °F 100% 29.82 in 3.0 mi Calm Calm - N/A   Scattered Clouds
8:55 AM 32.2 °F - 31.6 °F 98% 29.82 in 4.0 mi Calm Calm - N/A   Scattered Clouds
9:55 AM 36.9 °F - 36.0 °F 97% 29.82 in 10.0 mi Calm Calm - N/A   Mostly Cloudy
10:55 AM 42.6 °F - 36.7 °F 79% 29.82 in 10.0 mi Calm Calm - N/A   Clear
11:55 AM 46.9 °F - 34.5 °F 62% 29.82 in 10.0 mi Calm Calm - N/A   Overcast
12:55 PM 47.5 °F - 33.8 °F 59% 29.81 in 10.0 mi Calm Calm - N/A   Overcast
1:55 PM 47.5 °F - 33.6 °F 59% 29.81 in 10.0 mi Calm Calm - N/A   Mostly Cloudy
2:55 PM 48.0 °F - 34.3 °F 59% 29.80 in 10.0 mi Calm Calm - N/A   Overcast
3:55 PM 48.2 °F - 35.2 °F 61% 29.79 in 10.0 mi Calm Calm - N/A   Mostly Cloudy
4:55 PM 45.9 °F 43.6 °F 34.5 °F 65% 29.80 in 10.0 mi NNW 4.6 mph - N/A   Scattered Clouds
5:55 PM 43.7 °F 42.1 °F 34.2 °F 69% 29.80 in 10.0 mi NNW 3.5 mph - N/A   Partly Cloudy
6:55 PM 39.0 °F - 34.2 °F 83% 29.81 in 10.0 mi Calm Calm - N/A   Partly Cloudy
7:55 PM 36.0 °F - 33.6 °F 91% 29.82 in 10.0 mi Calm Calm - N/A   Clear
8:55 PM 33.3 °F 30.2 °F 32.2 °F 96% 29.83 in 10.0 mi South 3.5 mph - N/A   Clear
9:55 PM 30.9 °F 25.2 °F 29.8 °F 96% 29.84 in 10.0 mi South 5.8 mph - N/A   Clear
10:55 PM 30.7 °F - 30.2 °F 98% 29.85 in 8.0 mi Calm Calm - N/A   Clear
11:21 PM 30.2 °F - 30.2 °F 100% 29.85 in 2.5 mi Calm Calm - N/A   Clear
11:22 PM 30.2 °F - 30.2 °F 100% 29.85 in 2.0 mi Calm Calm - N/A   Clear
11:27 PM 30.2 °F - 30.2 °F 100% 29.85 in 1.8 mi Calm Calm - N/A   Clear
11:32 PM 30.2 °F - 28.4 °F 93% 29.85 in 2.0 mi Calm Calm - N/A   Clear
11:33 PM 30.2 °F - 28.4 °F 93% 29.85 in 2.5 mi Calm Calm - N/A   Clear
11:39 PM 28.4 °F - 28.4 °F 100% 29.85 in 3.0 mi Calm Calm - N/A   Clear
11:55 PM 30.2 °F - 29.7 °F 98% 29.85 in 6.0 mi Calm Calm - N/A   Clear